Theta_e
329 328 327 324 325 327 325 324 323 317 312 312 313 315 313 312 318 321 319 313 307 305 306 305 305 305 305 306 307 306 305 304 304 304 306 308 309 308 307 307 306 307 310 314 316 316 317 318 318 317 317 316 315 315 315 315 316 317 318 318 317 317 317 315 314 312 309 306 306 307 308 309 310 310 310 309 309 309 309 309 308 308 309 309 309
328 328 325 321 323 325 324 324 321 316 316 315 314 314 313 313 319 322 320 313 306 304 305 305 305 305 306 306 305 305 304 304 304 304 305 306 307 307 308 307 307 307 307 310 313 314 315 317 317 317 316 316 316 316 315 314 314 315 316 317 317 317 317 316 314 313 312 308 307 307 308 309 309 309 310 310 310 310 309 309 309 309 309 309 309
326 325 323 321 322 323 323 323 320 317 318 317 312 312 313 314 319 322 320 312 305 304 304 304 305 306 306 305 304 304 305 305 306 306 307 308 308 309 309 309 309 309 308 308 309 310 312 314 316 317 317 316 316 315 314 313 313 314 314 314 315 316 318 317 314 313 313 311 308 307 308 309 309 309 310 310 310 310 310 310 309 309 309 309 309
324 323 322 321 321 321 322 322 318 315 315 314 312 311 313 316 320 322 320 311 304 304 304 303 304 305 305 305 304 305 306 307 308 309 309 310 309 309 310 309 309 309 309 309 309 309 309 310 312 313 314 313 313 312 312 313 313 313 313 313 314 316 318 316 313 313 313 311 310 308 307 309 309 309 310 310 310 310 310 310 310 310 310 310 310
323 322 322 321 321 322 323 321 316 312 311 313 312 312 315 319 321 321 319 311 304 304 305 304 305 305 304 305 306 306 307 308 309 310 310 310 309 309 309 310 310 310 311 311 310 310 310 309 310 311 311 312 312 313 313 313 313 313 313 313 314 316 316 315 313 313 313 312 310 309 309 309 309 309 310 310 310 310 310 310 310 310 310 310 310
323 323 322 321 321 322 322 320 317 316 315 313 312 314 319 320 320 320 318 311 304 304 305 305 305 305 305 306 307 307 308 309 309 310 310 310 309 310 309 310 311 313 313 314 313 313 312 312 311 311 312 312 312 313 314 313 313 313 314 314 313 313 314 313 313 313 314 313 310 309 310 310 310 310 310 309 310 310 310 310 310 310 310 310 310
324 323 322 321 321 323 322 320 319 319 319 316 314 315 319 320 319 319 318 311 305 303 305 305 305 305 306 307 308 309 309 309 309 309 309 309 309 309 309 310 311 313 314 315 315 314 314 314 313 313 313 312 312 313 314 314 314 314 314 314 314 313 313 314 314 314 314 313 311 310 310 310 310 311 310 310 310 310 310 310 310 310 310 310 310
325 324 323 323 323 323 322 321 320 318 316 316 314 315 318 320 319 319 318 313 308 305 306 306 307 307 308 308 309 309 309 309 309 309 308 308 308 309 309 310 311 313 314 315 314 314 314 314 314 314 315 314 313 313 314 314 314 314 315 315 314 314 314 314 314 314 314 314 312 311 311 311 311 311 310 310 310 310 311 311 311 310 310 310 310
325 324 324 324 324 323 322 321 320 317 315 316 315 316 318 320 320 319 318 315 312 312 311 311 311 311 311 312 313 313 313 312 312 311 310 310 309 310 311 312 313 314 314 315 315 315 316 315 315 315 315 315 315 315 315 314 315 315 315 315 315 315 314 314 314 314 314 314 313 312 312 311 311 311 310 310 311 311 311 311 311 311 310 310 310
325 324 324 323 323 323 322 320 319 317 317 319 319 319 320 320 319 317 317 317 316 316 316 316 316 315 314 315 316 316 316 316 316 316 315 315 314 314 315 316 316 316 316 316 317 317 317 317 317 317 316 316 315 315 315 315 316 316 315 315 314 315 315 314 314 314 314 314 314 313 312 312 312 311 311 311 311 311 311 311 311 311 310 311 311
324 324 324 324 323 323 321 320 317 316 318 321 321 320 320 320 318 315 316 319 318 316 317 318 317 316 316 316 317 317 317 317 317 317 317 317 317 317 317 318 318 317 317 317 318 318 318 318 318 318 317 316 316 315 315 315 316 316 316 316 315 314 315 315 315 314 314 314 314 314 313 313 312 312 311 311 312 312 311 311 311 311 311 311 311
323 323 323 323 323 323 321 320 318 317 318 320 321 320 320 320 318 315 317 320 320 318 318 318 318 318 317 316 316 316 317 317 317 317 317 318 317 318 318 318 318 318 318 318 318 318 318 318 318 318 318 317 317 316 316 316 315 316 316 317 316 315 315 314 314 314 314 314 314 314 314 314 313 313 312 313 312 312 311 311 311 311 311 311 311
323 323 323 322 322 322 321 320 320 320 320 321 320 320 319 319 318 317 318 320 320 320 319 319 319 319 317 316 316 317 317 317 317 317 317 318 318 318 318 318 319 319 319 318 318 319 319 318 318 318 318 318 318 317 317 317 317 316 316 316 317 317 316 315 314 314 313 313 314 314 314 314 314 314 313 313 313 312 312 312 312 312 312 311 311
322 322 321 322 321 322 322 322 321 321 320 320 320 320 319 319 319 319 319 319 320 320 319 320 320 319 318 318 318 318 318 317 317 318 318 318 318 318 318 319 319 319 319 318 319 319 319 318 318 318 318 318 317 316 317 317 318 317 317 316 316 317 317 317 316 315 313 313 314 314 314 314 314 314 313 313 313 312 312 312 312 312 311 311 310
318 319 319 319 320 320 321 322 321 321 321 321 321 321 320 320 319 318 318 320 320 320 320 320 320 320 320 320 319 319 319 319 318 318 318 318 318 318 318 319 319 319 319 319 319 319 319 319 318 318 318 317 317 316 316 316 318 318 317 317 316 316 317 318 317 315 314 314 315 314 314 313 313 313 313 313 313 312 312 312 312 311 311 310 309
314 315 316 316 317 318 318 319 319 320 320 320 320 321 321 321 320 319 318 320 320 320 320 319 319 320 319 319 319 319 319 319 319 319 319 319 319 319 319 318 318 318 318 318 318 318 319 319 319 318 318 317 317 316 316 316 317 317 317 316 316 316 317 318 318 317 316 315 314 314 313 313 313 313 313 313 313 312 312 312 311 311 309 307 305
310 311 311 312 313 314 314 315 316 317 317 318 318 319 319 319 319 318 318 318 318 318 318 318 318 318 317 317 317 317 316 316 317 317 317 318 318 319 319 319 319 318 318 319 318 318 318 318 318 318 318 317 317 317 316 316 316 317 316 316 316 316 317 317 316 316 316 315 314 314 313 314 314 314 314 313 312 312 312 311 310 308 305 303 302
308 309 309 309 309 310 310 311 312 313 314 315 316 316 317 317 317 317 317 317 317 317 317 317 317 316 315 315 315 314 314 314 314 314 314 314 315 315 316 316 317 317 318 318 317 317 318 318 318 318 317 317 317 317 317 317 316 316 316 316 316 317 317 316 314 313 314 314 314 314 314 314 314 314 313 312 312 311 310 309 306 304 303 302 301
308 308 308 308 308 309 309 310 310 311 311 312 313 313 314 315 315 316 316 316 317 317 316 316 316 315 315 314 314 313 312 312 313 313 312 313 313 313 313 313 313 314 314 314 314 314 315 315 316 316 316 316 316 317 317 317 316 316 316 316 316 317 316 314 313 313 313 314 314 314 314 314 313 313 312 311 310 309 307 305 304 303 302 302 301
306 306 306 307 308 308 308 309 309 309 309 309 310 310 311 312 312 313 313 314 315 315 315 314 314 314 314 314 313 313 312 311 312 313 313 313 314 314 314 313 313 312 311 311 311 311 311 312 312 313 313 314 315 316 316 316 315 315 315 316 317 315 313 313 314 313 313 314 314 314 313 313 312 311 310 309 308 306 306 305 304 303 302 301 300
303 303 304 305 306 306 307 308 309 309 309 309 309 309 309 310 310 311 311 312 312 312 312 312 312 312 312 312 312 312 312 311 311 312 312 313 314 314 315 315 315 314 313 312 311 311 310 310 310 310 312 313 314 315 315 315 315 315 316 316 315 310 309 310 310 309 310 312 312 311 310 310 309 308 308 307 306 306 305 304 303 302 300 300 299
302 303 303 303 303 304 304 305 306 307 308 308 309 309 309 309 309 309 309 310 310 310 310 310 310 310 310 310 310 311 312 312 312 312 312 312 313 313 314 314 315 315 315 314 312 311 310 309 309 310 312 313 314 315 315 315 315 316 316 314 311 309 308 307 305 305 307 308 308 308 308 308 308 307 307 306 306 305 304 303 301 300 300 299 299
301 301 302 302 302 302 302 302 302 302 303 304 304 305 305 305 306 306 306 306 306 306 307 307 307 307 307 307 307 307 308 309 311 312 312 312 312 312 313 313 314 314 315 315 314 313 311 310 310 311 313 314 314 315 315 314 314 316 315 313 311 312 310 307 305 306 307 307 307 307 308 308 307 307 306 306 305 303 302 301 300 299 299 298 298
299 299 300 300 300 300 300 300 300 300 300 300 300 300 300 301 301 301 301 301 301 301 302 302 302 302 302 302 302 302 302 303 305 307 309 310 311 312 312 312 312 312 312 313 314 314 313 311 310 311 314 316 315 314 315 314 314 315 314 312 312 313 311 307 307 308 308 308 308 308 308 307 307 306 305 304 303 301 300 299 299 298 298 298 297
298 298 298 298 298 298 298 298 298 298 298 298 298 298 298 298 298 298 299 299 299 299 299 299 299 299 299 299 299 299 300 300 301 303 304 306 307 309 310 311 311 311 311 312 313 314 314 312 310 311 314 316 315 314 314 314 314 314 314 312 312 312 310 308 308 309 309 309 308 307 307 306 305 304 303 302 301 300 299 298 298 298 297 296 295
297 297 297 297 297 298 298 298 298 298 298 298 298 298 298 298 298 298 298 298 298 298 298 298 298 298 298 298 298 298 298 299 300 302 302 303 304 305 307 309 310 311 311 312 313 314 314 314 312 312 314 315 315 314 313 313 313 314 313 312 312 312 310 309 309 309 309 308 307 306 305 304 303 302 301 300 299 299 298 297 297 296 295 294 293
297 297 297 297 297 297 297 297 298 297 297 297 297 297 297 297 297 297 297 297 297 297 297 297 297 297 298 298 298 298 298 298 300 301 302 302 303 303 305 307 309 310 310 311 311 312 312 312 312 313 314 314 314 314 312 312 312 312 312 311 311 311 310 309 309 309 308 307 306 304 303 302 301 300 299 298 298 297 297 296 295 294 293 293 293
297 297 297 297 296 296 296 296 296 296 296 296 296 296 296 296 296 296 296 296 297 297 297 297 297 297 297 297 297 298 298 298 299 300 301 302 302 303 303 305 307 309 309 309 309 309 309 309 309 310 311 311 311 311 311 312 312 311 310 309 309 309 309 308 307 306 305 304 303 302 301 300 300 299 298 297 297 296 295 294 293 293 293 292 292
296 296 296 296 295 295 295 295 295 295 295 295 295 295 295 295 295 295 295 296 296 296 296 296 296 296 297 297 297 297 297 298 298 298 299 300 301 301 302 303 305 307 308 308 308 308 308 307 306 306 307 308 308 308 308 309 309 309 308 308 308 307 306 306 305 304 303 301 300 300 300 299 298 297 296 296 295 294 293 293 293 292 292 292 292
296 296 296 296 295 295 295 295 295 294 294 294 295 295 294 295 295 295 295 295 295 295 295 296 296 296 296 296 296 296 296 297 297 298 298 299 299 300 301 301 302 304 305 306 307 307 307 307 306 305 306 307 308 307 306 306 306 307 307 307 306 304 304 303 302 301 300 300 299 299 298 297 296 295 295 294 293 293 293 292 292 292 292 292 292
296 296 295 295 295 295 295 294 294 294 295 295 295 295 295 295 295 295 295 295 295 295 295 295 295 295 295 295 295 295 296 296 296 296 297 298 298 299 299 300 301 302 304 305 306 307 307 306 306 305 306 307 307 306 305 305 305 305 305 304 303 302 301 300 300 300 299 299 298 297 296 296 295 294 293 293 292 292 292 291 291 291 292 292 292
296 295 295 295 295 294 294 294 294 294 295 295 295 296 296 296 295 295 295 295 295 295 295 295 295 295 295 295 295 295 295 296 296 296 296 297 298 298 299 299 300 301 303 304 306 306 306 306 305 304 305 306 306 305 305 305 304 303 302 302 301 301 300 300 299 299 298 297 297 296 295 295 294 293 292 292 292 291 291 291 291 291 292 292 292
295 295 295 295 295 294 294 294 294 294 294 295 295 296 296 296 296 296 295 295 295 295 295 295 295 295 295 295 295 295 295 295 295 295 295 296 297 298 298 299 299 300 302 304 305 306 306 305 304 304 304 305 306 305 304 304 303 302 302 301 301 300 300 299 299 298 297 296 296 295 294 293 293 292 292 291 291 291 291 291 291 291 292 292 292
295 294 294 295 295 295 294 294 294 294 294 295 295 296 296 296 296 296 296 296 296 296 296 296 296 296 296 296 296 296 296 295 295 295 295 296 297 298 298 299 299 300 301 303 305 306 305 304 304 305 304 305 305 305 303 302 302 302 301 300 300 299 299 298 297 297 296 296 295 294 293 293 292 292 292 291 291 291 291 291 291 291 291 292 292
295 294 294 294 295 294 294 294 294 294 295 296 296 296 296 296 296 297 297 297 297 297 297 297 296 296 296 296 296 296 296 295 295 295 296 297 297 298 299 299 299 300 300 301 303 305 305 304 304 304 305 305 304 303 302 302 302 301 300 300 300 299 298 298 297 296 295 295 294 294 293 292 292 292 291 291 291 290 290 290 291 291 291 291 291
295 294 294 294 294 294 294 294 294 295 295 296 296 296 296 296 296 297 297 297 297 298 297 297 297 297 296 296 296 296 296 296 296 297 297 298 298 298 299 299 299 300 300 300 302 305 305 305 304 304 304 304 303 302 301 301 301 300 300 301 300 300 298 297 296 296 295 294 294 294 293 292 292 292 291 291 290 290 290 290 291 291 291 291 290
295 294 294 294 294 294 293 294 295 295 296 296 296 296 296 296 296 296 296 297 298 298 298 298 298 297 297 297 297 296 296 297 297 297 298 298 298 299 299 299 299 300 300 300 302 304 304 304 303 303 303 303 302 301 301 301 301 300 300 301 300 299 298 297 296 295 295 294 294 293 292 292 292 291 291 290 290 290 290 290 291 291 290 290 290
295 294 294 294 294 293 294 294 295 295 295 295 295 295 296 296 296 296 296 297 297 297 297 297 298 298 298 298 297 297 297 297 298 298 298 298 298 299 299 299 299 300 300 300 301 303 303 302 301 301 302 302 301 301 301 301 301 300 300 300 299 297 297 296 295 294 294 294 293 293 292 292 291 291 290 290 290 290 290 290 291 290 290 290 290
295 294 294 294 294 293 294 294 295 294 294 294 295 295 295 296 296 296 297 297 297 297 297 297 298 298 298 297 297 298 298 298 298 298 298 299 299 299 300 299 299 300 300 300 301 302 302 302 301 300 301 301 301 301 302 302 300 299 299 299 297 296 295 295 294 294 294 294 293 292 292 291 291 290 290 290 290 290 290 290 290 290 289 289 290
295 295 295 294 294 294 293 294 294 294 293 293 294 294 295 295 295 296 297 297 296 297 297 297 297 298 298 297 298 298 298 298 299 299 299 299 299 300 300 300 299 300 299 300 301 301 302 301 301 300 300 300 301 302 302 300 299 298 298 297 296 295 295 294 294 294 294 293 292 292 291 291 290 290 290 290 290 290 290 290 290 290 289 289 290
294 295 295 295 294 294 294 293 294 293 293 293 293 294 295 295 295 296 296 296 296 296 297 297 297 297 297 297 297 297 297 297 298 298 298 298 298 299 299 299 299 299 299 300 300 301 301 301 300 300 300 301 301 301 301 300 298 297 296 295 295 295 294 294 294 294 293 292 291 291 291 290 290 289 289 289 289 289 290 290 290 289 289 289 290
294 295 295 295 295 295 294 294 294 293 293 293 293 294 295 295 295 295 296 296 296 296 296 296 296 296 296 296 296 296 296 296 297 297 297 298 298 299 299 299 299 300 300 300 300 300 300 300 300 300 300 300 300 300 300 299 298 297 296 295 295 294 294 294 294 293 292 291 291 291 291 290 289 289 289 289 289 289 290 290 289 289 289 290 290
294 295 295 295 295 295 294 294 294 294 293 293 293 294 294 295 295 295 295 296 296 296 295 295 295 295 295 295 295 295 295 296 296 297 297 297 298 298 298 298 298 299 299 299 299 299 299 298 299 299 299 299 298 298 298 297 297 296 295 295 295 294 294 293 293 292 291 291 291 291 290 289 289 289 289 288 288 289 289 289 289 289 289 290 290
295 294 295 295 295 294 294 294 294 293 292 292 292 293 294 294 294 295 295 295 295 295 295 295 295 294 295 295 295 295 295 296 296 296 296 297 297 298 298 298 298 298 298 298 298 298 298 298 298 298 298 298 297 297 297 297 296 296 295 295 294 293 293 292 292 292 292 291 290 289 289 288 288 288 288 288 288 289 289 289 289 290 289 289 289
295 294 294 295 295 294 294 294 293 292 292 291 292 293 294 294 294 295 295 295 295 295 295 295 295 295 295 295 295 295 296 296 296 296 295 295 295 296 296 297 297 297 297 297 297 297 297 296 296 296 297 297 297 296 296 295 294 294 293 293 292 292 292 292 291 291 290 289 288 288 288 288 288 288 287 287 288 289 289 289 289 290 289 289 289
295 294 294 294 294 294 294 294 293 293 292 291 292 293 294 294 294 295 295 294 294 295 295 295 295 295 295 295 295 295 295 295 295 295 295 294 294 294 295 295 295 295 296 296 296 296 296 296 296 296 296 296 295 294 293 293 292 292 291 291 291 291 291 291 290 289 288 287 287 287 287 287 287 287 287 288 288 289 289 289 289 290 289 289 290
295 295 294 294 295 294 294 294 294 293 293 292 292 293 294 294 294 294 294 294 295 295 294 294 295 295 295 295 295 295 295 295 295 295 295 295 295 295 295 295 295 295 294 295 295 295 296 296 296 295 295 294 293 292 292 292 291 291 291 291 291 290 289 288 288 287 287 287 287 287 287 287 288 289 289 288 288 288 289 289 289 289 289 289 290
295 295 294 294 295 295 294 294 294 294 293 293 293 293 294 294 294 294 294 295 295 294 294 294 294 294 295 295 295 295 295 295 295 295 295 295 295 295 295 295 295 295 295 295 295 295 295 294 294 293 293 292 292 292 292 291 291 290 290 289 288 287 287 287 287 287 287 287 288 288 289 290 290 290 290 289 289 289 289 289 289 289 288 288 289
295 295 294 294 294 294 294 294 294 293 294 294 293 293 293 293 293 294 294 295 295 294 294 294 294 294 294 295 295 295 295 295 294 294 294 294 294 294 294 294 294 294 294 294 294 293 293 293 292 292 292 292 291 291 291 290 289 289 288 287 287 287 287 288 288 289 289 290 290 290 291 291 291 290 290 290 290 290 289 288 288 288 288 288 289
295 295 294 294 293 293 294 294 294 293 293 293 294 294 293 293 293 294 294 294 294 294 294 294 294 294 294 294 294 294 294 294 294 294 293 293 293 293 293 293 293 293 292 292 292 292 292 291 291 290 290 290 290 289 289 289 289 289 289 289 289 289 290 290 291 291 291 291 291 291 291 290 290 290 290 290 290 290 290 289 288 288 288 288 288
295 294 294 294 293 293 293 293 294 293 293 292 293 293 293 293 293 293 293 293 293 293 293 294 294 294 294 294 294 294 293 293 293 293 293 293 293 293 292 292 291 291 291 291 291 291 290 289 289 289 288 288 289 289 289 290 290 290 290 291 291 291 291 291 291 291 290 290 290 290 289 289 289 289 289 289 289 289 289 289 289 288 288 288 288
Wind_Speed
26 25 24 23 22 20 18 16 14 13 13 13 11 9 11 10 7 5 3 3 6 9 10 10 10 10 9 9 8 8 9 10 12 12 13 12 11 10 8 8 8 8 11 13 13 11 9 9 10 10 10 9 9 8 7 7 8 10 12 12 11 10 9 8 4 3 8 10 9 10 10 9 7 6 5 5 4 4 4 4 3 2 2 1 4
25 25 24 24 23 21 20 18 15 15 15 14 12 11 13 11 8 7 4 3 6 8 9 10 11 10 9 9 9 10 12 13 14 14 14 13 12 11 10 10 9 9 9 11 13 13 11 11 10 9 8 8 8 7 7 8 8 9 11 13 13 13 13 11 8 4 5 8 9 10 11 10 8 6 6 6 5 4 4 4 3 3 3 3 4
25 25 24 25 24 22 22 20 17 17 16 14 12 12 13 12 10 9 5 4 8 9 9 11 11 10 10 10 11 14 15 16 16 15 14 13 12 11 10 9 8 8 8 8 10 12 13 12 11 10 10 9 9 10 9 9 9 9 11 13 13 14 15 13 10 7 7 8 10 11 10 9 8 7 6 6 6 5 5 5 5 5 5 6 7
24 25 25 24 23 24 25 22 20 21 19 15 14 14 13 13 12 10 6 6 9 10 11 13 13 13 13 14 15 16 17 17 15 14 13 11 10 9 8 7 7 7 7 7 8 9 10 11 11 11 11 10 10 10 9 8 7 7 8 10 12 15 17 15 12 9 9 10 11 11 9 8 8 8 8 8 7 7 7 7 6 6 7 7 8
23 23 24 23 24 27 28 24 22 23 20 19 17 15 13 13 12 10 7 7 10 12 13 15 15 15 16 17 18 18 17 16 15 14 12 10 10 9 7 7 6 6 6 6 7 7 7 7 9 10 10 10 10 10 10 9 8 6 5 7 10 13 15 15 12 10 9 9 11 11 10 9 9 10 10 9 8 7 8 8 8 8 8 8 9
23 22 23 23 25 28 28 24 23 21 18 17 16 12 12 13 13 11 8 8 11 13 14 15 16 16 17 18 19 18 18 16 15 13 12 10 9 8 7 6 6 6 6 6 6 6 6 7 9 11 11 12 12 11 10 10 9 8 7 7 9 12 14 15 14 12 10 9 11 12 12 11 11 11 12 11 10 8 8 9 10 10 10 10 10
22 21 22 24 26 27 27 26 26 24 17 15 14 12 12 14 13 11 9 9 12 14 15 15 16 16 16 17 17 17 17 16 14 13 11 10 9 8 7 7 7 7 7 7 7 7 7 8 9 11 12 13 13 12 11 11 11 10 9 10 11 13 15 16 16 14 12 10 11 13 12 12 13 13 13 13 12 11 11 10 10 11 11 12 12
18 19 20 24 27 28 28 28 27 24 17 15 16 15 14 15 13 11 10 11 12 14 14 15 14 14 14 14 13 13 13 13 13 12 11 10 10 10 9 10 10 10 10 9 9 8 9 9 9 9 10 11 13 13 13 13 13 12 12 13 14 15 16 16 17 16 13 12 13 13 13 13 14 14 15 15 14 14 14 12 12 12 12 13 13
15 17 20 25 29 31 31 30 27 23 20 20 21 19 18 18 15 12 11 12 13 13 13 12 11 11 12 12 11 11 10 11 11 10 10 11 11 11 11 11 12 12 11 10 10 10 10 11 11 10 10 11 12 13 14 14 14 14 14 14 15 16 16 17 17 17 15 14 15 15 15 16 16 16 17 17 16 16 15 14 14 13 13 14 14
14 17 19 24 30 31 30 27 24 24 25 23 22 22 21 20 16 13 13 13 14 14 13 11 11 11 11 12 12 11 11 11 10 10 10 10 11 12 12 11 11 12 11 11 12 11 11 12 12 12 12 12 12 13 13 14 15 15 14 13 13 15 17 18 18 18 17 17 17 18 18 18 18 18 19 18 17 17 17 16 15 15 15 15 16
15 16 16 19 24 26 25 24 22 24 26 23 22 24 24 20 17 15 15 16 15 15 15 13 12 13 13 13 13 13 14 13 13 13 13 13 14 14 14 13 12 12 13 13 14 13 14 14 15 15 15 14 14 14 15 15 15 16 16 15 14 15 17 19 19 18 18 18 19 20 20 20 20 20 20 20 19 19 19 18 18 18 18 18 18
17 16 16 18 20 22 24 24 22 22 24 22 21 23 22 19 16 16 18 18 17 17 16 14 13 14 14 14 15 15 15 15 15 16 16 17 17 17 17 17 16 16 16 16 17 17 17 17 18 18 19 18 17 17 18 17 17 18 19 19 20 19 20 20 20 20 19 18 18 20 21 21 21 22 22 21 20 20 19 19 19 18 19 19 20
18 17 16 16 16 17 21 23 21 21 22 19 19 19 18 19 19 18 18 18 17 16 16 15 14 15 16 16 16 16 16 16 16 16 16 17 18 19 20 20 20 20 19 20 20 20 20 20 21 21 21 21 21 21 21 21 21 20 20 22 24 24 24 24 24 24 23 21 19 19 21 22 23 23 22 21 20 19 18 18 18 18 19 20 22
18 17 16 15 14 14 16 19 19 19 20 20 19 18 17 19 19 16 14 15 15 15 15 15 15 16 17 17 17 17 17 17 17 17 16 16 17 19 20 21 22 22 23 23 23 23 23 23 23 23 23 23 24 25 25 24 24 24 23 23 25 26 26 26 26 27 27 25 23 20 19 21 22 20 19 19 18 18 18 18 19 19 20 21 23
21 20 19 18 17 15 14 15 15 16 17 18 18 18 17 16 15 14 14 14 14 14 15 15 15 15 16 17 17 17 17 18 19 19 19 18 18 19 21 22 23 24 25 25 25 24 25 25 25 25 25 25 26 27 28 27 27 27 26 26 26 28 28 28 27 26 25 24 22 19 18 18 18 18 17 17 18 18 18 19 19 19 20 21 23
24 22 21 20 18 17 15 15 15 15 15 15 15 15 14 14 13 14 15 16 15 16 16 16 17 17 17 17 18 17 16 17 19 20 21 22 22 23 23 24 25 26 26 26 26 26 26 26 26 27 27 27 28 29 30 30 30 29 28 27 28 29 30 29 28 25 23 21 20 19 18 17 17 17 17 18 18 18 19 19 19 19 20 20 21
22 21 20 19 17 16 15 14 14 14 13 13 13 13 12 12 13 14 14 15 15 16 16 17 18 18 17 16 16 16 14 14 14 16 18 21 23 26 27 29 30 31 31 30 29 28 28 28 28 29 29 30 29 29 30 32 32 30 28 28 28 30 31 31 28 24 22 21 20 19 19 19 18 18 18 18 19 19 19 19 18 18 17 17 17
17 16 16 14 13 12 12 11 11 10 10 10 10 9 10 10 11 11 11 12 13 13 13 14 14 15 14 14 14 15 14 13 13 14 15 15 18 21 24 27 29 31 31 31 30 29 29 29 30 31 32 31 30 29 30 31 31 30 29 28 29 31 31 29 25 23 22 21 21 20 20 19 19 18 18 18 19 19 18 17 16 15 16 16 17
11 10 9 8 7 7 7 6 6 5 5 6 6 6 6 7 7 7 8 9 9 10 11 11 12 12 13 14 15 17 17 16 15 16 15 15 14 15 17 20 23 24 25 26 26 27 28 29 30 31 32 31 30 30 30 30 30 30 29 28 28 29 28 24 21 21 21 19 18 19 19 18 18 18 18 17 17 16 15 14 15 16 16 17 18
6 5 4 3 2 0 1 3 4 3 3 3 3 4 5 6 7 7 8 9 10 11 12 12 13 14 15 16 17 19 20 20 19 19 18 17 16 15 16 18 19 20 20 21 22 23 24 25 26 27 29 29 29 29 29 30 30 30 28 27 26 25 24 21 19 19 17 16 17 17 17 17 17 17 16 15 14 13 13 14 16 17 17 17 17
5 5 6 6 6 7 7 7 7 8 8 9 9 9 10 10 11 11 12 12 13 14 14 15 16 16 17 18 19 20 22 23 23 24 23 22 21 20 20 21 21 21 22 22 21 21 21 22 23 24 25 27 28 28 28 29 30 29 27 24 22 20 19 18 18 18 17 17 17 18 17 17 16 15 13 13 12 13 14 15 16 16 16 17 17
7 8 9 9 10 11 12 12 12 12 14 15 16 16 17 17 18 18 18 18 19 19 20 20 21 21 21 21 22 22 23 24 25 26 26 27 26 25 25 24 23 23 25 25 24 23 21 21 21 22 24 25 26 26 27 28 28 29 25 21 18 17 16 17 18 19 19 19 18 17 17 16 14 13 12 12 12 13 14 15 15 15 16 16 17
10 11 12 13 14 15 15 16 16 16 17 18 19 20 21 22 23 23 24 24 24 25 26 26 27 27 27 27 27 26 26 27 27 27 27 28 28 28 29 28 27 26 27 26 26 25 24 22 22 22 24 25 25 26 28 27 28 28 24 19 18 18 17 17 18 19 19 18 18 16 15 14 13 12 11 11 12 13 13 14 14 15 16 16 18
12 13 14 15 16 17 17 18 19 19 20 20 21 21 22 23 24 25 26 26 27 28 28 29 30 31 32 31 31 30 29 29 29 29 29 29 29 29 30 30 30 30 29 28 27 27 27 26 24 24 24 26 26 27 28 28 29 28 24 20 20 20 19 18 19 20 19 18 17 16 14 13 12 11 10 10 11 12 13 13 14 15 16 17 19
11 12 13 14 15 15 16 17 18 19 19 20 21 21 22 22 23 24 25 26 27 28 29 30 31 32 33 33 33 32 32 31 30 30 30 31 31 30 30 30 30 31 30 29 29 28 29 28 28 28 26 26 28 30 31 30 30 28 25 23 22 20 19 20 20 19 18 17 16 14 13 12 10 9 10 11 11 12 13 13 14 15 17 18 20
11 11 11 11 12 12 13 14 15 16 17 18 18 19 20 21 21 22 22 23 24 25 26 28 29 30 31 32 33 33 32 32 31 29 30 31 31 31 31 31 30 30 30 29 28 28 29 30 31 30 28 26 29 33 32 28 27 27 25 24 22 20 20 20 19 18 17 16 14 13 11 10 10 10 10 11 11 12 12 13 15 17 18 19 20
10 10 9 9 9 10 11 12 13 14 15 16 16 17 18 19 20 21 21 22 23 23 25 26 27 28 29 30 31 32 31 31 30 29 29 29 29 29 29 29 29 29 28 26 25 25 27 29 31 31 29 29 31 32 29 25 25 25 23 21 20 19 19 18 16 14 14 13 13 12 11 10 10 10 11 11 10 11 13 14 16 18 19 19 20
10 10 9 9 10 11 12 14 14 15 16 16 16 17 17 18 19 19 20 21 23 23 24 25 26 27 29 30 31 31 31 30 29 28 28 27 26 26 25 25 25 25 24 22 21 20 22 24 25 26 27 27 27 25 25 25 24 21 19 18 17 17 17 16 14 12 12 12 11 10 9 10 10 10 10 10 11 12 14 15 16 17 18 18 19
11 10 10 10 11 12 13 14 14 15 15 15 15 15 16 17 17 18 18 19 21 23 24 25 25 26 28 29 30 31 32 31 29 28 28 27 24 23 22 22 22 22 22 21 20 20 20 20 19 19 20 20 21 20 20 22 22 20 19 18 16 16 16 14 13 12 11 10 10 9 10 10 10 10 10 11 12 13 14 14 15 16 17 18 19
12 11 11 11 12 12 13 13 14 14 15 15 14 13 13 14 15 17 17 17 19 20 22 24 25 26 27 28 28 29 32 32 30 28 28 28 26 23 21 20 20 21 21 20 20 19 18 19 18 17 16 18 22 23 21 20 21 21 20 18 16 15 13 12 11 11 10 10 10 10 10 9 10 10 11 12 13 13 13 13 14 15 16 18 19
14 13 13 13 12 12 13 14 14 15 14 14 14 13 12 12 13 14 15 15 16 17 19 21 23 25 27 28 29 29 30 31 30 30 29 29 28 25 22 19 19 20 20 19 19 18 17 17 18 18 19 22 26 28 25 23 22 20 19 17 15 13 11 11 10 9 9 10 10 10 10 10 11 11 11 11 11 10 11 12 13 15 17 18 19
16 15 14 13 12 12 13 14 15 15 15 14 14 14 13 13 12 11 10 11 12 14 16 18 20 22 24 26 28 29 29 29 29 29 29 29 29 27 24 20 19 20 20 19 18 18 18 17 18 19 22 25 27 28 27 25 23 21 20 19 17 13 11 11 10 10 10 11 11 11 11 11 10 10 9 9 8 9 10 12 14 16 17 17 19
17 17 16 14 12 11 12 14 15 15 14 14 15 15 15 14 13 12 9 7 8 10 12 14 17 19 20 22 24 25 26 26 26 25 25 25 26 26 24 21 21 22 22 20 18 18 17 17 18 20 23 25 27 29 29 27 25 22 20 18 16 15 14 13 12 12 12 11 11 10 9 8 8 7 7 7 7 9 10 12 14 16 16 17 18
17 17 17 14 12 11 11 13 14 13 12 14 15 16 16 15 15 15 13 10 8 7 9 11 13 16 16 17 18 19 21 22 21 20 19 20 21 22 22 22 22 24 23 21 18 17 16 15 16 19 22 24 27 30 30 27 24 22 19 16 15 15 15 14 13 12 11 10 9 8 6 6 6 5 6 7 8 9 11 13 14 15 16 16 16
18 18 18 14 11 10 10 11 11 12 12 13 14 16 16 15 15 16 17 17 15 12 10 9 10 13 14 14 15 16 17 17 16 15 16 17 19 20 21 21 23 25 25 23 20 19 18 17 16 16 19 23 26 28 29 27 25 22 20 18 16 15 14 13 12 11 11 9 7 5 4 5 5 6 6 7 8 10 12 13 14 15 15 14 14
18 19 17 13 9 9 8 8 9 11 11 12 13 14 14 15 15 17 18 19 18 16 14 12 11 11 12 13 13 13 13 13 13 14 15 17 18 19 20 21 22 24 25 24 22 20 20 19 17 16 16 20 24 27 27 25 22 21 19 16 14 14 13 12 12 11 10 8 6 5 5 5 5 6 6 7 8 11 12 13 13 13 12 12 11
16 16 15 11 8 7 7 6 8 10 11 11 12 13 13 14 16 17 19 19 17 15 13 12 11 10 10 12 13 12 12 12 13 14 16 17 17 18 19 21 22 23 25 25 23 22 22 22 20 17 17 21 26 28 24 18 16 17 17 14 13 12 11 11 11 11 9 7 5 5 4 5 5 5 6 7 9 11 12 12 12 11 10 10 9
15 14 12 10 8 7 7 7 8 10 10 10 11 13 13 15 16 18 17 15 14 14 13 12 12 12 12 13 12 10 9 11 13 15 16 18 18 18 19 21 22 24 25 24 23 22 21 21 20 19 21 25 27 25 20 17 16 18 17 15 13 12 11 12 12 11 8 5 4 3 3 4 5 5 6 8 10 11 11 11 10 9 9 9 9
14 12 11 10 8 8 8 8 10 12 12 12 12 13 13 14 16 17 15 13 12 13 13 13 13 14 14 14 12 9 8 9 10 12 14 16 16 16 16 19 21 22 23 22 21 20 19 17 16 20 25 27 25 20 18 19 20 20 18 15 14 13 13 13 12 10 6 3 3 3 3 4 4 5 7 9 10 10 10 9 9 9 9 8 8
13 11 10 9 9 9 9 9 11 13 12 11 12 13 12 13 15 16 15 14 14 14 14 14 14 13 14 14 14 14 14 13 13 14 15 12 9 8 9 12 15 16 16 16 17 17 17 15 13 18 24 26 23 20 20 22 23 21 18 16 14 14 13 13 10 7 4 2 2 2 3 4 4 6 8 8 9 10 10 9 8 8 9 8 7
12 11 10 9 9 10 10 10 12 14 14 12 11 11 10 12 14 15 16 16 15 15 15 14 13 13 15 16 17 18 18 17 17 18 18 16 11 7 5 5 6 6 6 9 13 14 14 12 11 14 19 22 21 21 22 24 24 20 16 15 14 12 11 10 8 5 3 2 2 3 5 5 6 7 7 8 9 9 9 7 6 7 9 9 8
12 12 10 9 8 10 11 12 13 15 15 13 10 9 10 11 12 14 15 15 15 16 15 14 14 15 16 18 18 18 18 19 19 18 17 17 14 11 9 6 4 3 2 3 5 7 8 9 9 10 13 16 18 20 21 22 20 17 15 14 12 10 9 8 6 5 4 3 4 6 7 6 6 7 7 7 8 8 6 6 7 7 8 8 8
12 12 10 8 7 8 11 12 12 14 16 13 7 7 9 10 11 12 14 14 15 16 16 16 16 17 17 17 17 17 17 18 18 18 18 17 15 13 11 9 5 2 2 2 1 1 3 7 10 11 12 14 17 19 19 18 16 13 12 11 10 9 8 6 5 4 5 6 7 8 7 6 6 6 6 7 6 5 4 5 7 7 7 7 8
12 12 10 8 7 8 10 12 12 13 14 9 5 7 8 9 10 11 12 13 15 16 17 18 18 18 17 17 17 17 18 18 18 18 17 16 14 13 12 11 8 6 5 5 4 4 3 7 13 16 16 17 18 17 16 14 11 9 8 7 6 6 6 5 5 6 7 8 8 7 6 5 5 6 6 6 4 3 3 5 6 6 6 7 8
11 12 12 10 8 8 10 10 9 9 9 7 5 7 8 8 9 11 12 13 14 15 16 16 17 16 16 16 17 18 18 17 16 16 16 16 16 16 15 14 11 8 6 6 5 6 8 13 17 19 18 17 16 14 12 11 10 9 8 6 5 5 5 6 7 8 8 8 6 5 4 4 5 5 6 4 2 2 3 5 6 6 6 8 8
9 11 12 12 10 8 8 7 8 9 9 7 6 7 8 8 8 10 12 12 13 15 15 15 15 15 15 15 16 17 17 15 14 14 16 18 20 20 20 19 17 13 11 9 9 10 12 14 16 16 15 15 13 12 12 11 10 8 7 6 6 6 7 8 7 7 6 4 3 3 3 3 3 4 4 3 0 2 3 5 5 5 5 7 8
8 10 10 11 11 9 8 8 8 9 9 8 7 7 7 7 8 10 10 11 12 13 14 14 14 14 14 15 15 15 15 14 14 14 14 15 15 15 14 15 15 15 14 13 12 12 12 13 13 14 14 13 12 11 10 8 7 6 5 5 5 6 6 5 4 3 2 2 1 1 1 3 4 6 7 5 2 2 2 2 3 5 6 6 6
7 8 8 8 8 9 9 8 8 8 8 7 7 6 7 7 8 8 8 10 11 12 12 13 14 14 14 14 13 13 12 12 12 13 14 14 14 13 11 10 10 10 11 12 13 13 13 14 14 13 12 11 8 7 5 4 3 3 2 2 2 2 2 3 3 3 4 4 5 5 6 6 6 7 8 7 4 2 1 3 3 5 7 6 5
5 6 7 7 6 7 7 7 7 7 7 6 6 6 6 7 7 6 6 9 10 10 10 12 13 14 14 13 12 11 11 11 11 12 12 13 13 13 11 10 9 9 9 11 13 14 14 13 12 11 9 8 6 5 4 3 3 3 4 4 5 6 6 7 7 6 6 6 6 6 6 6 6 7 8 8 7 6 6 4 4 5 7 6 6
6 6 6 6 5 5 6 6 7 8 7 5 4 5 5 5 5 5 6 8 9 9 10 10 11 12 13 13 12 11 11 11 11 11 12 12 12 12 11 10 9 9 9 10 12 12 12 12 11 10 9 8 7 6 5 5 6 7 7 8 8 8 8 8 7 6 6 6 6 6 5 6 6 7 7 8 8 8 8 8 7 7 7 8 7
7 6 6 6 5 5 5 5 5 6 6 6 4 3 3 4 4 5 6 7 8 8 8 8 8 10 11 11 10 10 11 11 11 11 10 10 10 10 10 9 9 9 9 10 11 11 12 11 10 9 8 7 7 7 7 7 7 7 7 7 7 7 6 5 5 5 5 5 5 5 5 5 6 7 7 8 8 9 8 8 8 8 9 10 9
Wind_Direction
198 197 195 195 192 189 189 195 204 205 201 193 179 196 227 220 205 210 194 164 177 181 191 195 192 191 188 188 186 174 166 161 157 155 157 163 163 160 159 157 159 165 173 178 172 169 174 170 163 161 162 168 172 174 186 200 220 232 234 237 238 238 237 231 230 182 163 161 158 165 173 174 170 165 163 166 176 185 183 188 205 238 260 332 10
202 202 202 200 195 191 189 191 199 202 202 199 192 206 227 225 217 223 215 179 179 182 191 191 187 189 188 186 181 169 162 158 154 152 152 154 154 151 147 141 134 133 150 171 178 181 184 182 179 179 182 196 210 221 228 228 236 242 243 246 244 242 241 233 229 238 211 188 178 179 185 185 178 166 160 168 182 193 195 202 227 264 295 310 321
207 208 207 204 200 197 196 197 199 202 204 204 202 213 226 224 221 226 222 187 180 184 188 181 176 179 179 175 169 162 159 155 151 151 151 151 151 149 144 140 138 137 140 154 170 182 190 191 194 200 208 221 234 241 242 238 240 243 248 253 250 243 241 233 230 251 255 225 206 198 196 194 186 175 174 184 190 197 211 220 235 266 297 302 299
212 212 210 208 206 203 203 201 200 206 210 209 210 216 222 223 221 224 225 198 183 183 182 174 168 170 169 166 163 161 160 158 156 156 156 156 154 152 150 150 152 154 154 157 167 179 189 196 204 214 222 228 234 242 247 246 242 238 241 245 242 239 239 233 232 249 259 245 228 214 203 197 192 188 192 200 201 207 222 236 245 259 277 286 287
214 211 208 206 205 204 203 200 201 208 212 210 211 214 215 218 221 226 223 200 187 184 180 173 169 170 170 167 165 165 166 166 165 165 165 164 162 162 165 166 167 175 180 180 183 186 192 203 214 223 229 234 241 249 254 254 251 246 238 232 228 229 231 231 235 244 250 250 240 221 205 198 200 202 204 213 225 227 231 243 251 256 265 271 276
210 207 205 204 204 203 201 196 196 201 202 199 201 206 213 217 222 227 221 198 188 184 180 178 175 175 176 173 171 172 174 175 174 175 174 173 174 179 187 189 189 196 202 201 200 204 209 214 223 232 241 249 256 258 253 249 248 248 241 227 218 216 221 231 240 243 242 246 241 227 212 206 211 216 215 221 234 241 243 251 253 255 260 264 270
198 199 200 201 202 200 194 189 191 192 187 184 189 199 216 220 222 226 216 196 189 185 183 184 182 179 181 181 180 181 181 183 186 187 187 187 192 203 214 219 220 218 219 220 222 227 229 229 232 239 247 255 259 258 251 245 242 239 236 230 225 225 229 236 240 241 239 235 233 228 220 215 219 225 225 227 234 240 247 256 257 256 259 264 272
189 190 190 192 199 200 193 187 189 190 186 185 190 197 209 215 219 223 213 195 188 186 184 185 184 182 183 186 189 191 191 194 199 203 204 206 212 221 231 237 239 236 232 233 241 246 245 245 249 251 254 256 257 255 254 252 249 244 240 239 239 240 240 238 236 238 237 230 226 228 228 227 228 228 228 232 237 242 248 255 257 258 261 266 273
184 186 183 186 194 198 194 190 192 198 201 199 198 200 204 207 209 213 210 198 189 186 182 180 184 188 189 189 192 198 202 203 207 213 218 220 224 231 239 245 247 245 241 242 251 258 257 255 257 258 260 260 259 258 256 257 260 259 254 250 249 248 245 238 233 233 234 228 224 226 231 235 235 232 231 236 243 248 252 255 256 258 260 264 271
175 178 178 184 193 196 194 191 191 196 199 200 202 203 201 202 204 205 205 202 197 193 188 188 194 200 202 203 205 211 216 217 218 225 229 233 237 241 246 252 252 250 251 256 262 267 269 267 263 261 261 263 264 263 261 263 266 269 265 258 253 251 249 244 237 234 233 231 227 228 232 236 238 236 237 241 245 246 246 248 250 253 258 265 273
163 171 174 183 191 193 187 183 184 191 197 204 208 202 197 200 204 201 200 203 203 200 198 203 209 211 212 216 220 227 232 233 235 239 242 244 245 246 250 254 255 255 261 268 273 277 277 274 270 268 267 269 270 270 268 267 267 268 266 260 251 247 246 244 240 237 234 233 231 232 235 238 239 238 238 241 244 243 242 244 247 252 259 267 274
146 157 167 176 186 187 182 180 186 195 202 207 208 200 195 200 204 201 202 206 206 203 204 210 214 214 217 222 229 236 241 244 246 248 249 249 250 251 253 254 255 258 264 270 274 276 276 277 276 273 272 274 277 277 273 270 268 268 265 261 255 249 245 242 240 238 238 238 239 239 239 238 236 236 238 241 242 241 242 245 249 256 264 270 277
141 145 153 163 171 178 181 184 189 196 199 199 201 200 197 198 203 204 205 206 207 205 206 211 213 214 217 223 231 238 245 249 251 251 251 251 251 253 255 255 255 257 263 270 273 273 274 276 276 275 273 274 277 278 276 272 269 268 267 264 259 255 252 248 244 243 244 247 249 248 245 240 236 236 239 239 239 241 245 250 256 264 271 278 284
134 133 134 136 139 149 168 179 183 187 191 193 196 200 198 197 201 204 201 201 204 205 207 211 214 217 219 224 230 239 246 251 254 255 254 251 250 250 252 254 255 258 263 268 270 270 272 273 273 273 272 272 275 278 277 274 270 268 269 267 263 259 257 253 248 246 246 248 249 249 247 242 237 236 238 237 238 243 249 255 263 270 277 284 290
122 123 124 123 124 129 145 160 166 174 184 192 197 202 206 205 204 205 206 206 208 211 212 215 219 222 225 230 234 238 245 251 254 257 257 254 251 249 249 251 253 257 261 264 265 267 269 270 270 270 269 270 272 275 276 275 272 269 268 267 264 260 257 253 249 244 243 243 243 239 235 234 234 233 236 239 243 249 254 261 267 274 281 289 294
115 117 118 118 121 124 130 140 147 153 166 179 187 194 201 205 203 203 209 213 219 224 226 228 232 234 237 242 244 246 250 253 255 258 259 259 259 257 257 258 259 260 262 264 266 268 268 268 267 267 267 267 268 270 272 273 272 270 267 264 261 258 255 253 249 241 236 236 233 229 228 230 233 237 242 247 252 256 261 266 271 278 285 291 293
107 109 110 110 113 118 122 129 134 138 149 162 169 172 177 184 188 191 199 208 215 222 226 230 234 238 241 244 245 246 248 249 253 256 259 261 263 263 264 264 265 266 267 267 268 267 266 266 266 266 267 267 268 268 268 270 271 269 265 260 257 255 252 250 244 234 229 228 227 227 229 233 238 244 248 253 256 259 263 268 275 281 287 291 292
100 103 105 104 106 109 110 115 122 130 140 147 151 156 163 171 179 184 191 200 206 211 215 218 223 229 231 234 239 241 242 243 247 250 253 259 264 266 266 266 265 266 266 267 267 266 266 266 267 268 269 270 270 269 269 270 270 267 261 255 252 250 248 246 240 232 226 224 224 228 233 237 242 246 249 252 255 258 263 270 278 285 291 295 299
92 93 94 95 103 111 113 117 123 129 139 148 151 158 170 181 189 195 201 209 214 217 218 220 225 231 234 238 243 247 247 247 249 250 250 254 260 267 270 270 269 268 268 269 269 268 268 268 268 269 270 271 271 270 270 271 269 264 257 251 247 246 245 245 242 236 233 231 230 233 236 239 242 244 245 247 252 258 265 276 286 293 298 301 303
65 56 47 40 36 42 192 198 207 217 227 227 217 214 215 218 222 224 226 230 233 234 235 235 237 241 244 246 249 253 255 256 256 257 256 255 258 264 268 271 275 277 278 278 276 272 270 268 268 269 270 271 270 269 269 269 266 261 253 245 243 242 238 236 232 231 235 238 236 235 237 238 238 239 241 246 253 264 277 287 295 300 302 303 302
12 358 342 330 317 306 297 285 272 265 268 273 273 269 265 260 255 252 251 251 249 249 250 250 249 250 253 255 256 258 260 261 261 262 263 262 261 262 263 267 274 279 282 283 281 278 275 273 274 273 271 269 266 265 266 263 261 258 250 239 235 232 227 223 220 222 228 231 232 234 234 234 234 236 242 251 263 276 287 295 298 300 301 301 300
332 324 317 311 305 301 298 295 290 282 278 277 276 276 276 274 271 269 267 265 264 263 263 262 262 261 262 263 265 263 262 263 262 262 262 263 263 263 263 265 269 274 277 280 281 282 280 279 280 279 273 266 260 260 260 256 255 256 247 228 217 218 222 221 219 221 224 224 225 228 227 227 231 238 248 261 274 284 292 296 297 298 298 297 298
316 310 305 302 300 299 298 297 295 291 287 283 281 280 278 278 277 276 275 273 272 271 270 269 269 268 268 268 269 270 268 266 264 262 259 259 260 261 262 262 264 266 270 275 279 280 279 278 278 278 273 265 257 254 252 250 251 251 241 220 210 215 221 220 216 215 217 217 217 219 221 227 236 246 258 271 281 289 293 294 293 294 295 296 298
319 312 306 302 300 299 298 298 296 295 293 291 288 286 284 282 281 280 280 279 278 277 276 275 274 273 272 271 271 271 271 271 269 267 263 261 259 259 259 260 261 263 266 270 274 275 273 273 272 272 268 262 256 253 250 248 248 245 232 214 209 212 215 214 210 209 212 213 213 217 224 235 244 254 266 278 285 288 288 289 291 293 295 298 299
331 324 317 312 310 308 305 303 301 300 299 298 296 294 291 289 287 285 284 283 282 281 279 278 278 277 277 275 273 271 270 270 270 270 268 265 263 260 259 258 259 261 263 265 268 270 271 270 270 268 263 256 253 251 247 244 244 239 225 212 211 213 214 212 208 208 211 212 215 222 231 239 247 259 271 278 281 282 282 285 290 293 295 297 299
344 336 329 325 322 318 314 311 310 309 308 306 305 303 300 297 294 292 289 287 285 283 281 280 278 277 276 276 274 272 269 267 266 267 268 268 266 263 261 259 257 258 260 262 266 269 270 269 269 268 262 253 251 253 249 240 237 233 222 213 212 213 214 213 211 213 215 216 222 229 232 238 249 262 270 271 272 276 281 287 291 293 296 298 301
359 353 347 342 337 330 325 321 319 316 313 310 308 304 302 300 297 295 294 291 288 285 282 281 279 277 276 274 273 271 269 266 264 263 264 266 266 265 264 262 259 258 259 264 271 275 275 274 272 271 266 255 251 254 251 238 230 226 219 212 210 210 212 215 214 216 220 224 228 228 228 241 258 263 263 265 271 279 285 290 293 296 300 303 306
8 4 358 349 341 335 330 326 323 319 316 313 310 306 303 300 297 295 294 291 289 287 284 282 281 279 278 277 276 274 272 269 267 265 264 265 267 267 266 265 263 261 262 268 275 281 283 281 278 277 273 256 240 236 233 224 219 215 208 203 200 199 201 204 206 214 223 225 225 229 240 255 260 258 260 268 278 283 287 291 295 300 304 308 311
6 1 355 347 342 340 337 334 333 329 323 319 315 311 307 302 298 296 294 290 289 288 287 287 286 284 282 281 281 280 277 274 271 268 266 267 268 269 269 269 268 267 265 269 275 278 281 280 279 282 278 254 228 218 214 208 203 198 193 192 193 195 199 206 212 217 220 222 232 248 255 254 253 256 266 275 280 283 288 294 299 305 309 312 315
1 354 348 343 340 341 340 340 339 336 330 325 320 315 308 304 301 299 297 294 291 289 289 289 289 289 288 287 286 284 283 281 278 273 268 267 266 266 268 271 273 271 267 268 272 273 273 274 274 275 269 248 235 232 223 205 193 188 186 188 193 197 203 209 210 212 220 230 241 246 245 246 254 262 269 275 279 284 291 297 303 309 314 316 319
1 356 349 343 341 342 342 341 339 337 334 330 326 320 312 306 303 301 299 296 291 287 286 285 284 285 285 285 285 284 284 285 284 281 276 271 267 265 265 267 271 272 267 265 266 266 265 267 268 263 254 242 235 233 223 204 190 185 182 182 184 188 191 195 199 210 223 226 225 228 237 247 256 262 266 273 279 286 295 304 310 315 319 321 323
2 2 357 351 350 348 344 344 342 340 338 338 337 333 326 318 313 309 303 296 290 284 280 279 278 277 278 279 281 284 286 287 288 286 281 276 271 269 267 265 264 265 262 256 255 255 256 259 261 258 249 237 227 224 217 205 196 195 193 188 187 190 194 199 205 214 219 218 220 230 240 247 253 258 262 269 281 294 304 312 317 320 322 324 324
357 1 360 356 354 350 346 346 345 342 344 351 354 351 345 338 334 331 326 312 296 288 286 286 286 284 285 287 289 292 293 292 291 289 283 277 271 269 267 264 260 259 256 251 249 248 251 256 259 256 249 237 225 219 214 206 200 199 199 197 195 195 195 197 202 207 212 218 226 232 238 244 250 254 262 276 291 303 311 316 320 323 323 323 325
353 358 358 352 349 349 347 344 343 346 355 3 5 2 358 355 351 347 344 337 321 303 297 299 298 297 300 304 305 305 303 300 299 296 287 278 272 268 266 263 258 254 250 248 247 246 247 251 256 254 247 235 224 217 209 201 194 190 188 188 187 186 186 189 195 202 209 218 225 231 242 253 256 261 273 285 297 309 317 322 324 323 322 323 327
355 360 357 351 346 346 345 342 345 354 3 9 12 10 8 7 3 357 351 346 339 330 322 316 311 307 308 311 312 309 307 305 302 294 284 278 275 270 264 261 257 253 251 249 247 244 242 243 249 252 243 231 222 213 201 191 186 183 182 182 184 185 185 187 192 201 208 215 223 242 263 268 266 269 278 291 307 320 326 325 322 321 323 326 327
356 358 354 352 349 346 344 346 352 358 360 3 6 6 3 1 359 355 351 347 344 340 334 330 326 320 314 313 313 311 308 303 295 285 280 279 277 272 268 264 261 257 255 251 244 238 237 238 243 248 241 227 216 204 193 187 185 184 184 187 190 189 186 184 189 199 205 212 234 265 274 268 269 275 286 306 319 325 327 325 322 323 327 328 326
354 353 351 352 349 345 347 349 351 352 350 351 354 356 354 353 351 348 348 349 354 358 356 348 343 335 318 309 306 303 298 292 287 284 283 280 275 271 268 266 265 263 260 252 242 236 237 236 234 233 230 221 209 198 192 194 196 192 191 193 190 185 182 181 189 199 208 222 254 274 271 267 271 282 298 316 325 330 331 328 325 329 335 339 349
350 350 351 347 338 341 352 350 342 338 336 335 341 347 351 352 350 348 351 359 11 19 17 11 3 356 345 335 326 314 302 297 295 294 292 288 284 279 269 262 263 265 262 254 246 245 247 243 234 226 222 213 202 197 201 210 208 202 201 196 183 176 179 183 190 200 213 237 264 270 267 269 278 293 311 326 333 336 336 332 331 341 355 6 18
349 349 350 346 337 337 341 337 330 327 324 328 338 347 351 352 353 355 2 15 25 23 17 11 9 9 8 8 9 11 3 343 329 323 313 298 286 278 269 261 259 261 261 257 251 250 256 258 245 227 217 209 202 206 217 213 201 196 196 188 176 176 184 191 196 204 219 248 266 264 273 284 292 308 323 332 337 341 345 349 353 360 9 17 19
352 350 346 343 340 336 330 327 329 329 329 336 347 354 358 359 3 12 23 28 27 20 13 10 13 21 30 33 35 36 33 24 17 11 2 344 310 280 271 263 256 254 255 252 246 247 256 260 241 214 207 207 210 219 219 205 192 188 186 180 178 184 191 195 203 213 228 248 255 267 288 299 305 316 327 334 339 345 355 7 14 9 5 7 6
355 352 342 335 338 340 337 333 333 334 338 345 354 6 14 13 15 25 31 29 24 19 18 20 27 38 46 48 46 41 36 32 30 27 23 19 14 3 343 307 282 278 271 254 244 244 253 255 232 206 204 208 212 216 212 200 189 182 177 178 184 191 195 201 212 228 239 245 266 293 303 305 309 318 328 335 339 345 358 13 16 4 359 1 2
357 356 344 335 337 336 333 330 330 332 334 338 352 18 27 23 25 29 29 26 26 27 31 38 43 46 48 46 42 37 33 30 29 27 24 23 22 17 10 357 331 319 317 274 253 247 244 235 218 206 206 206 203 203 201 193 183 175 173 178 187 195 203 213 227 243 255 272 296 305 305 304 307 314 324 332 338 347 3 10 3 360 3 3 358
359 358 349 345 347 339 330 327 324 322 324 331 3 44 37 29 33 33 29 30 35 40 47 51 47 43 40 36 32 30 29 28 27 23 18 16 14 8 2 359 360 37 95 92 91 177 211 202 188 179 181 184 182 181 179 175 170 169 172 177 185 197 209 226 245 261 274 290 299 299 297 297 301 308 319 329 339 356 12 4 359 5 9 2 351
360 1 355 350 347 335 326 321 316 316 323 340 43 65 44 37 42 37 32 36 42 47 54 56 51 45 39 34 32 31 28 23 19 16 13 11 8 5 6 13 27 51 71 77 83 88 124 163 165 162 161 161 160 161 160 158 156 158 159 161 173 191 208 232 255 266 277 287 289 288 289 292 295 303 316 327 343 13 15 1 4 12 11 4 360
356 1 3 3 353 333 324 326 331 339 351 16 69 74 54 49 50 43 38 40 43 46 52 56 54 50 45 40 36 32 26 21 20 22 26 32 35 36 38 40 42 50 64 82 105 124 139 148 151 149 146 144 143 143 141 138 136 135 137 145 169 197 220 241 256 266 274 278 277 277 283 288 295 308 320 327 350 66 31 8 7 11 10 10 13
351 357 6 15 16 1 349 359 17 21 21 33 70 83 72 60 51 46 43 42 41 42 46 48 47 45 41 38 35 32 29 31 36 43 51 57 58 56 55 56 58 65 76 92 113 132 139 140 139 136 132 130 128 128 128 129 133 142 155 176 200 222 239 251 258 263 264 262 262 268 279 294 318 341 351 350 122 114 59 24 6 358 358 360 3
346 350 1 16 26 25 19 22 30 34 36 46 69 85 83 70 59 54 48 39 37 41 44 43 41 39 35 34 34 33 35 41 47 51 57 62 62 59 58 59 65 76 88 99 111 122 127 127 124 120 118 117 119 124 130 137 149 167 187 208 223 235 244 247 244 239 226 209 185 146 93 65 53 46 42 45 87 119 86 28 340 345 349 344 348
335 342 352 8 24 27 23 22 25 33 45 57 71 82 86 82 75 65 46 33 34 41 45 45 45 42 38 36 36 38 42 47 49 49 51 53 56 57 56 55 63 80 97 108 115 119 119 117 114 111 111 113 119 128 136 141 152 167 184 201 204 198 182 164 147 133 126 117 106 97 86 69 56 48 43 40 41 37 333 270 290 342 354 346 343
310 324 340 359 20 25 20 17 20 25 37 59 78 87 90 89 87 79 54 38 38 41 43 46 49 48 44 42 42 44 47 50 49 48 48 51 55 59 62 64 69 79 90 101 106 108 107 106 104 104 106 109 111 117 121 117 111 105 103 109 116 118 117 117 114 109 106 100 90 82 71 54 40 34 27 21 16 9 355 330 324 351 356 347 337
280 299 322 344 11 25 19 11 13 17 22 38 72 95 102 102 104 96 72 52 47 48 47 45 46 49 49 47 46 48 50 50 49 48 48 50 57 63 67 70 72 75 80 87 91 93 94 95 93 94 97 98 102 109 114 113 110 108 106 106 109 110 110 109 104 97 93 87 77 67 54 38 28 21 13 6 2 1 359 356 353 353 351 346 340
259 282 306 328 355 13 8 360 2 8 12 19 39 75 100 108 111 107 89 70 65 66 62 49 38 43 50 52 53 54 54 53 51 50 50 53 57 62 66 67 67 70 76 81 84 88 92 92 91 92 98 103 109 117 122 121 118 115 112 110 111 110 104 97 89 86 85 80 70 59 46 33 22 13 9 6 360 355 354 354 350 348 347 348 350